Location: Waco, TX
(31.5480°N, 97.1670°W)
Time: 08:13:21
(UTC-05:00)

ISS - Pass Details

Date: 14 October 2019
Orbit: 411 x 421 km, 51.6° (Epoch: 18 October)

Event Time Altitude Azimuth Distance (km) Brightness Sun altitude
Rises 10:44:41 0° 235° (SW) 2,349 -0.1 36.5°
Reaches altitude 10° 10:46:49 10° 241° (WSW) 1,487 -1.0 36.8°
Maximum altitude 10:50:04 48° 318° (NW) 553 -3.1 37.3°
Drops below altitude 10° 10:53:18 10° 34° (NNE) 1,489 -1.0 37.8°
Sets 10:55:27 0° 40° (NE) 2,352 0.0 38.2°
